Flag for U.S.A. Weather past 2 weeks in Des Moines, Iowa, U.S.A.

60 °F

More clouds than sun.

Feels Like: 60 °F
Forecast: 56 / 72 °F
Wind: No wind

Location: Des Moines International Airport

Current Time: Oct 6, 2015 at 10:13:17 AM

Latest Report: Oct 6, 2015 at 8:54 AM

Visibility: 10 mi

Pressure: 30.19 "Hg

Humidity: 80%

Dew point: 54 °F

Location of Des MoinesLocation

Historic Weather in Des Moines — Graph


Des Moines temperature yesterday

Maximum temperature yesterday: 68 °F (at 2:54 PM)
Minimum temperature yesterday: 51 °F (at 12:54 AM)
Average temperature yesterday: 59 °F

Past Weeks' High & Low Weather Summary

High84 °F (Sep 28, 2:54 PM)90% (Sep 22, 10:54 PM)30.39 "Hg (Sep 22, 10:54 PM)
Low44 °F (Oct 2, 6:54 AM)27% (Sep 30, 4:54 PM)29.85 "Hg (Sep 28, 3:54 PM)
Average64 °F65%30.14 "Hg
* Reported Sep 21 8:54 AM — Oct 6 8:54 AM, Des Moines, Weather by CustomWeather, © 2015

Note: Actual official high and low records may vary slightly from our data, if they occured in-between our weather recording intervals... More about our weather records


Des Moines weather history for previous 24 hours

Time TempWeatherWind HumidityBarometerVisibility
8:54 AM
Tue, Oct 6
60 °FMore clouds than sun.No wind80%30.19 "Hg10 mi
7:54 AM58 °FPassing clouds.3 mph84%30.17 "Hg10 mi
6:54 AM56 °FPartly cloudy.No wind87%30.17 "Hg10 mi
5:54 AM56 °FOvercast.No wind87%30.16 "Hg10 mi
4:54 AM57 °FPartly cloudy.No wind87%30.15 "Hg10 mi
3:54 AM57 °FPassing clouds.No wind83%30.15 "Hg10 mi
2:54 AM57 °FPartly cloudy.No wind83%30.15 "Hg10 mi
1:54 AM58 °FPassing clouds.No wind84%30.15 "Hg10 mi
12:54 AM57 °FPartly cloudy.No wind83%30.16 "Hg10 mi
11:54 PM
Mon, Oct 5
58 °FPassing clouds.No wind84%30.16 "Hg10 mi
10:54 PM58 °FPassing clouds.No wind81%30.16 "Hg10 mi
9:54 PM58 °FPassing clouds.5 mph81%30.16 "Hg10 mi
8:54 PM62 °FPartly cloudy.No wind73%30.16 "Hg10 mi
7:54 PM64 °FPassing clouds.No wind68%30.15 "Hg10 mi
6:54 PM65 °FPartly sunny.No wind63%30.15 "Hg10 mi
5:54 PM67 °FMostly cloudy.3 mph61%30.14 "Hg10 mi
4:54 PM68 °FMostly cloudy.3 mph59%30.14 "Hg10 mi
3:54 PM67 °FMostly cloudy.5 mph61%30.14 "Hg10 mi
2:54 PM68 °FMostly cloudy.No wind57%30.15 "Hg10 mi
1:54 PM67 °FOvercast.3 mph59%30.18 "Hg10 mi
12:54 PM65 °FOvercast.5 mph61%30.19 "Hg10 mi
11:54 AM63 °FOvercast.6 mph63%30.21 "Hg10 mi
10:54 AM62 °FMostly cloudy.5 mph65%30.22 "Hg10 mi
Weather by CustomWeather, © 2015

See weather overviewHow to use our weather pages